Showing default

YAOGAN-34 02, 52084

Orbit data source: Space-Track

YAOGAN-34 02, 52084 is a payload satellite owned by PLA SSF (CN) in LEO that was launched on Thu, 17 Mar 2022 UTC via a CHANG ZHENG 4C launch vehicle from the Jiuquan Satellite Launch Center, China (JSC). Payload-class satellites include a variety of spacecraft equipped with specific instruments for various scientific and technological missions. These include communications satellites like Starlink; space stations such as the ISS; scientific satellites like the Hubble; Earth observation satellites from companies like Planet Labs, Umbra, and HawkEye 360; GPS; miniature CubeSats for education and research; and military/defense satellites.

Loading next visibility...
Identifier
52084, 2022-027A
Orbit
LEO
Country
Flag of CNCN / PRC
Related business
Manufacturer
DFH
Mission
Operational Defense Imaging
Bus & Motor
Unknown
Mass
~500 kg wet, ~500 kg dry
Launch date (UTC)
2022-03-17 (4 years ago)
Launch vehicle
CHANG ZHENG 4C
Launch site
Jiuquan Satellite Launch Center, China (JSC)
Object type
Payload
Rocket body
Debris
Shape & HBR
Box + 2 Pan, 0.5 m
Radar Cross Section
0.446 m², Large (>1 m²)

Expand to show TLE details & history
Last TLE update: 21 hours ago

TLE from 21 hours ago
0 YAOGAN-34 02
1 52084U 22027A   26172.55776149 -.00000088  00000-0  38487-5 0  9996
2 52084  63.3943 189.8791 0052413 353.5256   6.5087 13.45460016209508
Epoch: 2026-06-21T13:23Z
TLE epoch observation values (Epoch: 2026-06-21T13:23:10.592Z)
Latitude
-0.00003°
Longitude
79.32864°
Altitude
1,051.886 km
Speed
7.346 km/s
True Right ascension
12h 39m 30s
True Declination
0° 00' 00"
Sunlit
Object was in daylight at epoch
Visualization orbit readout
Latitude
Unknown
Longitude
Unknown
Altitude
Unknown
Speed
Unknown
Apparent Right ascension
Unknown
Apparent Declination
Unknown
Sunlit
N/A
Visualization observer readout
Local Sidereal Time
21:24:00
Azimuth
Unknown
Elevation
Unknown
Doppler factor
Unknown
Orbital elements
Apogee altitude
1,126.971 km
Perigee altitude
1,048.708 km
Semi-major axis
7,465.976 km
Eccentricity
0.00524
Inclination
63.3943°
RAAN
189.8791°
Arg. of periapsis
353.5256°
True anomaly
6.57723°
Mean anomaly
6.5087°
Eccentric anomaly
6.54292°
Mean motion
3.36444 °/min
Orbital period
107 mins
BSTAR
0.0000038487
Loading maneuver chart data...
Computing Atmospheric mass density...
Loading historical data...
Loading historical data...
Loading historical data...
Loading historical data...
Loading historical data...
Loading historical data...
Loading historical data...
Other satellites on launch #27 in the year 2022 (2022-03-17 UTC)

Documentation

Showing up to 5 results
|